EHI
0 0 0 0 0 0 0 0 0 0 0 0 0 1 2 2 1 2 2 2 1 1 2 2 2 3 5 7 9 10 9 9 9 10 9 7 4 3 3 3 3 3 3 3
0 0 0 0 0 0 0 0 0 0 0 0 0 1 2 2 1 1 1 1 0 1 1 1 1 2 4 6 9 10 9 9 9 10 9 8 5 3 3 3 3 3 3 3
0 0 0 0 0 0 0 0 0 0 0 0 0 0 2 3 2 1 0 0 1 1 1 1 2 3 4 6 8 9 8 8 9 9 9 8 5 3 3 2 3 3 3 3
0 0 0 0 0 0 0 0 0 0 0 0 0 0 2 3 3 1 0 1 2 2 1 2 4 5 6 6 7 8 7 7 7 7 7 6 5 3 1 1 1 2 2 2
0 0 0 0 0 0 0 0 0 0 0 0 0 0 1 3 3 2 1 1 2 3 2 3 5 6 6 6 6 6 6 6 6 6 6 5 4 2 1 0 0 1 1 1
0 0 0 0 0 0 0 0 0 0 0 0 0 0 1 2 3 2 1 1 2 3 4 5 6 6 6 6 6 5 5 6 6 6 5 4 4 3 1 0 0 0 0 1
0 0 0 0 0 0 0 0 0 0 0 0 0 0 1 2 3 2 1 0 1 3 4 5 6 6 6 6 6 5 4 5 7 6 5 5 5 4 2 1 0 0 1 2
0 0 0 0 0 0 0 0 1 1 1 0 0 0 0 1 3 2 1 0 0 2 3 3 4 5 5 5 4 3 3 4 6 6 5 5 5 4 3 2 1 1 2 2
0 0 0 0 0 0 0 0 1 2 1 0 0 0 0 1 2 2 1 0 0 1 2 2 2 2 2 2 1 1 1 2 4 4 4 4 4 3 3 3 3 2 2 1
0 0 0 0 0 0 0 0 1 1 1 0 0 0 0 0 1 1 0 0 0 1 1 1 0 0 0 0 0 0 0 1 2 3 3 3 3 3 3 3 3 2 1 0
0 0 0 0 0 0 0 0 0 0 0 0 1 0 0 0 0 1 0 0 0 0 0 0 0 0 0 0 0 0 0 1 2 3 3 3 3 3 3 2 2 1 0 0
0 0 0 0 0 0 0 0 0 0 0 0 0 0 0 0 0 0 0 0 0 0 0 0 0 0 0 0 0 0 0 1 2 3 3 3 3 3 1 1 1 0 0 0
0 0 0 0 0 0 0 0 0 0 0 0 0 0 0 0 0 0 0 0 0 0 0 0 0 0 0 0 0 0 0 1 2 3 3 3 3 3 1 0 0 0 0 0
0 0 0 0 0 0 0 0 0 0 0 0 0 0 0 0 0 0 0 0 0 0 0 0 0 0 0 0 0 0 0 1 2 3 3 3 3 3 2 1 0 0 0 0
0 0 0 0 0 0 0 0 0 0 0 0 0 0 0 0 0 0 0 0 0 0 0 0 0 0 0 0 0 0 0 0 1 2 3 3 2 2 2 2 0 0 0 0
0 0 0 0 0 0 0 0 0 0 0 0 0 0 0 0 0 0 0 0 0 0 0 0 0 0 0 0 0 0 1 1 0 1 3 3 1 1 2 1 0 0 0 0
0 0 0 0 0 0 0 0 0 0 0 0 0 0 0 0 0 0 0 0 0 0 0 0 0 0 0 0 0 1 2 2 1 1 3 3 2 2 2 1 0 0 0 0
0 0 0 0 0 0 0 0 0 0 0 0 0 0 0 0 0 0 0 0 0 0 0 0 0 0 0 0 0 1 2 3 3 3 3 3 3 3 2 1 0 0 0 0
0 0 0 0 0 0 0 0 0 0 0 0 0 0 0 0 0 0 0 0 0 0 0 0 0 0 0 0 0 1 2 3 3 3 3 3 3 3 2 1 0 0 0 0
0 0 0 0 0 0 0 0 0 0 0 0 0 0 0 0 0 0 0 0 0 0 0 0 0 0 0 0 0 0 1 3 3 3 3 3 3 2 1 0 0 0 0 0
0 0 0 0 0 0 0 0 0 0 0 0 0 0 0 0 0 0 0 0 0 0 0 0 0 0 0 0 0 0 1 2 3 3 3 3 2 1 0 0 0 0 0 0
0 0 0 0 0 0 0 0 0 0 0 0 0 0 0 0 0 0 0 0 0 0 0 0 0 0 0 0 0 0 0 1 2 2 2 1 1 0 0 0 0 0 0 0
0 0 0 0 0 0 0 0 0 0 0 0 0 0 0 0 0 0 0 0 0 0 0 0 0 0 0 0 0 0 0 0 1 1 1 0 0 0 0 0 0 0 0 0
0 0 0 0 0 0 0 0 0 0 0 0 0 0 0 0 0 0 0 0 0 0 0 0 0 0 0 0 0 0 0 0 0 0 0 0 0 0 0 0 0 0 0 0
0 0 0 0 0 0 0 0 0 0 0 0 0 0 0 0 0 0 0 0 0 0 0 0 0 0 0 0 0 0 0 0 0 0 0 0 0 0 0 0 0 0 0 0
0 0 0 0 0 0 0 0 0 0 0 0 0 0 0 0 0 0 0 0 0 0 0 0 0 0 0 0 0 0 0 0 0 0 0 0 0 0 0 0 0 0 0 0
0 0 0 0 0 0 0 0 0 0 0 0 0 0 0 0 0 0 0 0 0 0 0 0 0 0 0 0 0 0 0 0 0 0 0 0 0 0 0 0 0 0 0 0
Wind_Speed
3 2 2 2 2 2 3 5 5 6 6 6 5 4 3 2 1 1 1 0 0 2 2 2 2 2 1 1 1 1 2 3 3 3 2 2 2 2 2 3 3 3 2 2
1 1 1 1 2 3 3 3 4 4 6 4 3 2 2 3 3 3 2 1 1 2 1 1 1 2 2 1 1 1 2 2 2 2 2 2 2 2 2 2 2 2 2 2
2 2 2 3 3 3 2 2 3 5 7 2 2 3 5 5 4 4 3 2 2 2 2 2 2 1 1 1 0 1 1 1 2 2 2 2 2 2 2 2 2 2 2 2
2 1 5 5 1 2 2 3 3 4 3 2 3 3 3 3 4 4 3 2 2 2 1 1 1 0 1 2 2 2 1 1 1 2 2 1 2 2 2 1 2 2 2 2
3 3 5 4 2 1 2 4 2 2 2 2 1 2 2 1 2 4 3 3 2 1 0 1 1 1 2 2 2 2 1 1 1 2 2 1 1 1 1 1 1 1 2 2
3 3 5 5 3 1 2 4 2 1 2 1 1 0 4 2 2 2 1 0 0 1 2 1 1 1 2 2 2 1 1 1 1 1 2 2 2 1 1 1 1 1 1 2
3 3 6 5 3 1 2 5 2 2 2 1 2 4 3 2 1 1 1 0 1 1 1 0 0 1 1 1 2 2 1 1 1 1 1 2 1 1 1 1 1 1 1 1
3 3 7 2 1 2 5 3 1 2 2 2 2 1 1 1 1 2 2 1 1 1 1 1 1 2 1 1 2 1 1 1 1 1 1 0 1 1 1 1 1 0 1 1
6 6 4 2 3 3 2 2 2 2 2 2 2 1 0 0 1 1 1 1 1 2 1 2 1 1 1 1 1 1 1 1 1 1 0 0 1 1 0 1 1 0 1 1
2 5 4 3 2 2 2 3 3 2 2 2 2 1 1 1 1 1 1 1 1 2 1 1 1 1 1 1 0 1 1 1 1 1 1 0 0 1 1 1 1 1 1 2
3 4 3 3 3 3 2 1 0 1 1 2 2 1 1 2 2 2 2 1 1 2 1 1 1 2 1 1 0 1 1 1 1 1 1 1 1 2 2 3 3 3 2 2
5 5 4 5 4 2 2 2 2 1 0 1 2 2 1 2 2 2 2 2 2 1 1 1 1 2 2 2 0 0 1 1 1 1 1 1 1 1 1 2 2 4 4 3
5 4 4 4 3 2 3 3 2 2 2 2 2 2 3 2 2 2 2 2 2 1 0 0 1 2 3 2 1 0 1 1 1 1 1 1 1 1 1 2 2 1 2 2
3 2 1 3 3 3 3 2 1 0 1 2 2 1 2 2 2 2 2 2 1 1 1 1 1 2 3 2 1 1 1 1 1 1 1 1 1 2 2 1 1 2 2 2
2 3 4 3 1 1 1 1 1 0 0 0 1 2 3 3 2 2 1 1 1 1 0 1 1 3 3 2 1 1 1 1 1 1 1 1 1 1 1 2 2 1 2 2
2 1 1 1 2 1 0 1 2 2 2 2 2 2 3 3 2 2 1 1 2 0 1 1 1 3 2 1 1 1 1 2 1 1 1 1 1 1 1 1 1 1 2 2
2 1 2 2 3 2 2 3 4 4 3 3 3 3 3 3 2 1 0 0 1 1 1 1 2 3 2 1 1 1 1 2 2 1 0 1 1 1 1 1 1 2 2 2
5 5 5 5 4 4 3 2 2 3 3 3 2 3 3 3 2 2 1 0 1 2 2 3 3 2 2 1 1 1 1 1 1 1 1 1 1 1 1 1 2 2 3 3
3 4 4 4 4 3 3 2 2 2 2 2 3 3 3 2 2 1 1 0 1 2 4 3 3 2 2 2 1 1 1 1 1 1 1 1 1 1 1 2 2 2 3 2
2 2 3 3 2 2 3 2 2 2 2 3 3 2 1 1 1 1 1 1 2 3 4 3 2 2 2 2 1 1 1 1 1 1 1 1 1 1 2 2 2 2 2 2
3 3 3 3 3 2 3 3 3 3 2 3 3 3 3 2 1 1 1 2 4 3 2 3 2 2 2 1 1 1 1 1 1 1 1 1 1 2 2 2 3 3 2 2
2 3 3 3 2 2 1 2 3 3 2 2 3 3 2 1 1 1 2 3 3 2 1 1 2 2 1 0 0 0 1 1 1 1 1 1 1 2 2 2 2 2 2 2
2 2 2 3 3 2 1 1 2 3 3 3 3 3 3 2 2 2 2 3 2 2 1 1 2 1 1 0 0 0 1 1 1 1 1 1 1 2 2 2 2 2 2 2
2 2 2 2 3 3 2 2 2 2 2 2 3 3 3 2 1 2 2 3 2 3 2 2 2 1 0 0 0 0 1 1 1 1 1 1 1 2 2 2 2 2 2 2
2 2 2 3 3 3 3 2 1 1 1 1 1 2 2 2 3 3 2 2 2 2 2 2 2 2 0 0 0 1 1 2 2 2 2 2 2 2 2 2 2 2 2 2
2 2 2 3 3 2 2 2 2 2 2 1 2 1 1 1 1 1 1 1 2 2 2 2 1 1 1 1 1 1 2 2 2 2 2 2 2 2 2 2 3 3 3 3
1 1 1 0 0 1 2 2 3 3 3 3 2 2 2 2 1 1 1 2 2 2 2 2 1 1 1 1 1 2 2 2 2 2 2 2 2 2 3 3 3 2 2 3
Wind_Direction
218 228 184 200 227 196 190 198 205 239 237 260 259 237 219 203 180 126 18 35 283 295 295 312 319 294 268 254 241 188 166 173 185 180 164 160 165 169 159 160 174 178 179 191
279 257 188 230 265 229 228 226 238 264 267 266 259 204 197 201 195 192 216 234 270 285 281 270 273 293 287 271 255 156 169 183 175 156 152 159 164 161 157 168 177 170 182 191
233 290 340 265 243 216 214 217 204 235 256 276 260 229 213 214 215 215 221 224 245 266 259 246 232 239 256 254 135 133 149 155 147 150 153 165 163 151 173 189 179 184 199 198
151 86 238 243 255 202 205 240 243 255 265 258 254 249 230 209 205 218 232 241 244 253 261 284 283 279 117 101 105 104 99 102 113 131 147 157 155 170 188 184 185 198 199 198
140 200 269 290 275 177 204 269 257 238 276 306 9 25 302 229 206 219 223 230 229 240 242 8 11 53 88 93 100 98 98 103 119 121 121 139 164 198 200 168 187 208 195 195
135 178 238 253 273 265 148 270 270 228 243 263 94 91 264 269 255 241 234 229 172 60 63 52 22 81 104 123 122 137 171 189 154 136 157 186 204 227 214 181 207 218 225 217
158 208 260 263 290 65 166 250 269 220 228 222 215 225 244 244 239 187 147 97 76 72 64 358 26 90 119 157 198 215 205 180 167 167 178 181 172 185 180 173 171 229 250 271
154 194 254 286 93 178 230 264 260 238 229 245 259 264 265 202 164 130 102 87 100 90 20 345 76 107 120 233 238 193 175 178 184 199 209 137 126 112 113 134 145 238 282 309
187 213 242 247 227 245 210 225 245 230 244 218 233 253 276 181 153 138 128 126 116 114 60 4 8 100 131 290 306 162 168 189 192 184 140 151 155 157 154 143 138 246 269 282
236 264 263 267 275 283 238 224 229 212 204 182 199 206 192 166 157 136 110 112 106 103 92 17 2 0 319 310 36 123 211 221 198 194 214 220 203 180 179 189 205 235 251 269
250 277 307 302 273 265 275 273 143 162 190 186 172 199 201 187 185 165 134 122 115 118 101 350 350 347 337 337 101 117 271 267 234 214 212 225 235 217 207 219 210 212 228 237
230 232 214 251 257 232 219 237 210 188 252 212 181 188 191 190 188 163 144 122 108 88 73 17 357 339 334 332 360 102 318 284 255 236 233 224 227 305 285 236 243 227 225 224
226 234 221 254 261 227 216 220 215 204 202 207 199 180 169 161 155 144 136 135 154 160 124 15 6 334 328 335 358 59 257 260 248 234 232 226 217 214 275 320 318 269 233 234
228 188 239 250 244 226 205 203 188 209 213 176 175 162 150 130 126 136 158 170 149 118 56 30 11 337 333 348 359 326 301 284 266 247 242 236 230 231 226 234 282 309 304 272
243 211 217 240 250 234 171 142 126 140 100 106 140 141 143 147 163 179 180 135 105 84 43 54 18 330 342 1 352 338 320 288 273 278 291 287 274 256 238 237 250 279 308 324
245 237 193 185 216 223 156 168 177 202 195 179 160 162 165 160 156 146 130 124 122 181 279 310 315 311 330 350 337 323 310 308 303 275 293 300 295 278 259 249 254 268 280 290
161 212 211 215 219 220 217 207 199 200 188 179 184 166 138 124 111 94 327 297 188 244 275 274 283 303 318 310 282 293 312 317 324 329 320 288 269 241 233 227 242 259 272 275
204 204 202 205 209 216 220 205 187 187 185 188 163 140 143 152 170 209 249 314 30 345 311 287 290 303 305 294 272 273 300 313 317 311 310 291 270 250 237 241 255 267 279 288
219 212 213 214 210 192 193 190 183 181 172 157 154 166 180 188 191 201 189 92 351 305 296 294 287 281 288 289 291 281 296 311 311 307 301 299 287 276 268 263 265 268 271 278
216 208 209 203 189 175 188 189 175 177 182 163 153 152 167 215 204 195 175 217 242 248 268 284 278 276 275 283 281 253 263 277 281 286 291 294 280 283 283 282 280 276 277 276
213 200 199 191 187 192 194 177 166 180 188 168 168 180 195 213 199 173 174 268 276 272 278 275 263 267 274 271 249 251 257 267 276 280 273 272 276 278 281 282 285 285 283 282
207 185 187 176 167 198 205 172 171 175 171 173 178 178 177 202 221 212 222 243 269 290 298 292 283 285 293 259 182 250 269 271 272 288 295 287 280 283 285 285 285 289 290 291
200 176 171 175 182 191 182 179 184 182 182 185 185 187 196 211 204 199 260 273 279 289 291 287 289 297 301 300 318 297 299 294 286 279 282 282 276 282 287 289 291 294 293 297
180 173 183 172 146 141 176 225 212 201 196 198 198 199 197 206 245 238 234 252 258 261 260 270 272 276 239 170 32 324 307 293 280 271 275 281 280 283 288 291 293 293 291 294
170 165 161 151 161 187 202 200 171 174 178 244 254 235 213 201 215 241 242 243 245 243 258 269 267 271 239 199 236 266 274 278 275 265 258 258 266 276 280 283 283 284 283 288
161 174 184 189 192 194 189 177 187 203 195 228 277 277 249 232 226 236 239 249 250 251 257 266 269 254 238 234 248 257 267 282 281 269 266 266 270 274 277 278 276 273 277 281
120 127 124 104 239 198 188 189 199 212 205 205 239 256 240 227 219 221 231 247 250 251 255 256 242 227 231 243 252 253 256 265 271 272 273 271 270 269 271 272 274 278 281 284